GW1900 Weather Reports


Display with metric or nautical units.
time (UTC)temp
F
wind
direction
speed
MPH
gust
MPH
rain 1hr
in
rain 24hr
in
rain mn
in
humidity
%
barometer
mb
20260906115034 68 0 0.0 1.0 0.00 0.00 0.00 89 1018.5
20260906114603 68 0 0.0 1.0 0.00 0.00 0.00 89 1018.4
20260906114034 68 0 0.0 2.0 0.00 0.00 0.00 89 1018.3
20260906113534 68 0 0.0 2.0 0.00 0.00 0.00 89 1018.2
20260906113052 68 9 0.0 0.0 0.00 0.00 0.00 89 1018.3
20260906112533 68 0 0.0 0.0 0.00 0.00 0.00 89 1018.2
20260906112035 68 0 0.0 0.0 0.00 0.00 0.00 89 1018.1
20260906111625 68 0 0.0 0.0 0.00 0.00 0.00 89 1018.0
20260906111032 68 0 0.0 0.0 0.00 0.00 0.00 89 1018.1
20260906110536 69 0 0.0 1.0 0.00 0.00 0.00 89 1018.0
20260906110057 69 0 0.0 1.0 0.00 0.00 0.00 89 1018.0
20260906105536 69 0 0.0 1.0 0.00 0.00 0.00 89 1017.8
20260906105034 69 96 0.0 2.0 0.00 0.00 0.00 89 1017.7
20260906104555 69 0 0.0 2.0 0.00 0.00 0.00 89 1017.6
20260906104037 69 0 0.0 4.0 0.00 0.00 0.00 89 1017.6
20260906103533 69 0 0.0 4.0 0.00 0.00 0.00 88 1017.6
20260906103100 69 0 0.0 4.0 0.00 0.00 0.00 88 1017.5
20260906102533 69 0 0.0 4.0 0.00 0.00 0.00 88 1017.6
20260906102032 69 0 0.0 0.0 0.00 0.00 0.00 88 1017.6
20260906101601 69 0 0.0 0.0 0.00 0.00 0.00 88 1017.5
20260906101033 69 0 0.0 0.0 0.00 0.00 0.00 88 1017.5
20260906100535 69 0 0.0 3.0 0.00 0.00 0.00 88 1017.5
20260906100058 69 0 0.0 3.0 0.00 0.00 0.00 88 1017.5
20260906095536 69 0 0.0 3.0 0.00 0.00 0.00 88 1017.4
20260906095040 69 0 0.0 2.0 0.00 0.00 0.00 88 1017.3
20260906094555 70 0 0.0 3.0 0.00 0.00 0.00 88 1017.3
20260906094033 70 0 0.0 4.0 0.00 0.00 0.00 88 1017.3
20260906093533 70 50 0.0 4.0 0.00 0.00 0.00 88 1017.3
20260906093106 70 0 1.0 4.0 0.00 0.00 0.00 88 1017.4
20260906092534 70 0 0.0 3.0 0.00 0.00 0.00 88 1017.4
20260906092035 70 0 0.0 3.0 0.00 0.00 0.00 87 1017.3
20260906091600 70 0 0.0 2.0 0.00 0.00 0.00 87 1017.3
20260906091034 70 0 0.0 1.0 0.00 0.00 0.00 87 1017.2
20260906090538 70 0 0.0 1.0 0.00 0.00 0.00 87 1017.2
20260906090111 70 0 0.0 2.0 0.00 0.00 0.00 87 1017.2
20260906085535 70 0 0.0 2.0 0.00 0.00 0.00 87 1017.1
20260906085034 70 0 0.0 1.0 0.00 0.00 0.00 87 1017.2
20260906084611 70 0 0.0 4.0 0.00 0.00 0.00 87 1017.2
20260906084034 70 297 0.0 4.0 0.00 0.00 0.00 86 1017.1
20260906083534 71 0 0.0 4.0 0.00 0.00 0.00 86 1017.0
20260906083100 71 47 0.0 3.0 0.00 0.00 0.00 86 1017.1
20260906082533 71 0 0.0 2.0 0.00 0.00 0.00 86 1017.0
20260906082035 71 0 0.0 4.0 0.00 0.00 0.00 85 1017.1
20260906081606 71 32 0.0 4.0 0.00 0.00 0.00 85 1017.2
20260906081035 71 67 0.0 4.0 0.00 0.00 0.00 85 1017.1
20260906080535 71 0 0.0 0.0 0.00 0.00 0.00 85 1017.2
20260906080142 71 0 0.0 0.0 0.00 0.00 0.00 85 1017.3
20260906075533 71 0 0.0 0.0 0.00 0.00 0.00 84 1017.4
20260906075034 72 0 0.0 0.0 0.00 0.00 0.00 84 1017.3
20260906074601 72 0 0.0 2.0 0.00 0.00 0.00 84 1017.3
20260906074033 72 0 0.0 2.0 0.00 0.00 0.00 84 1017.4
20260906073536 72 0 0.0 3.0 0.00 0.00 0.00 84 1017.4
20260906073107 72 0 0.0 3.0 0.00 0.00 0.00 84 1017.4
20260906072534 72 21 1.0 3.0 0.00 0.00 0.00 83 1017.4
20260906072034 72 42 0.0 3.0 0.00 0.00 0.00 83 1017.4
20260906071558 72 0 0.0 3.0 0.00 0.00 0.00 83 1017.3
20260906071034 73 47 0.0 3.0 0.00 0.00 0.00 83 1017.4
20260906070536 73 360 0.0 3.0 0.00 0.00 0.00 83 1017.5
20260906070127 73 53 0.0 3.0 0.00 0.00 0.00 83 1017.6
20260906065536 73 0 0.0 3.0 0.00 0.00 0.00 83 1017.5
20260906065034 73 40 0.0 3.0 0.00 0.00 0.00 83 1017.5
20260906064552 73 0 0.0 3.0 0.00 0.00 0.00 83 1017.6
20260906064034 73 99 0.0 3.0 0.00 0.00 0.00 83 1017.6
20260906063533 73 0 0.0 3.0 0.00 0.00 0.00 83 1017.6
20260906063104 73 0 0.0 5.0 0.00 0.00 0.00 83 1017.6
20260906062535 73 61 1.0 5.0 0.00 0.00 0.00 83 1017.6
20260906062034 73 40 1.0 5.0 0.00 0.00 0.00 83 1017.6
20260906061634 73 49 1.0 4.0 0.00 0.00 0.00 83 1017.6
20260906061034 73 46 1.0 4.0 0.00 0.00 0.00 83 1017.7
20260906060534 73 35 0.0 4.0 0.00 0.00 0.00 83 1017.6
20260906060059 73 0 0.0 4.0 0.00 0.00 0.00 83 1017.5
20260906055534 73 0 0.0 3.0 0.00 0.00 0.00 83 1017.4
20260906055034 73 18 0.0 8.0 0.00 0.00 0.00 83 1017.4
20260906054604 73 0 1.0 8.0 0.00 0.00 0.00 83 1017.3
20260906054035 73 45 2.0 4.0 0.00 0.00 0.00 82 1017.3
20260906053534 73 52 1.0 6.0 0.00 0.00 0.00 82 1017.4
20260906053101 73 31 1.0 6.0 0.00 0.00 0.00 82 1017.3
20260906052534 73 45 1.0 5.0 0.00 0.00 0.00 82 1017.2
20260906052034 73 93 1.0 5.0 0.00 0.00 0.00 81 1017.2
20260906051557 73 44 2.0 6.0 0.00 0.00 0.00 81 1017.2
20260906051036 73 57 2.0 8.0 0.00 0.00 0.00 81 1017.2
20260906050535 73 55 1.0 8.0 0.00 0.00 0.00 81 1017.2
20260906050112 73 68 1.0 7.0 0.00 0.00 0.00 81 1017.2
20260906045536 73 51 1.0 4.0 0.00 0.00 0.00 81 1017.2
20260906045035 74 0 1.0 6.0 0.00 0.00 0.00 81 1017.1
20260906044603 74 83 1.0 8.0 0.00 0.00 0.00 81 1016.9
20260906044033 74 339 3.0 8.0 0.00 0.00 0.00 81 1016.9
20260906043533 74 42 2.0 8.0 0.00 0.00 0.00 81 1016.7
20260906043111 74 0 1.0 4.0 0.00 0.00 0.00 81 1016.7
20260906042534 74 63 0.0 6.0 0.00 0.00 0.00 81 1016.6
20260906042034 74 68 1.0 6.0 0.00 0.00 0.00 81 1016.6
20260906041558 74 74 2.0 6.0 0.00 0.00 0.00 81 1016.6
20260906041034 74 132 1.0 6.0 0.00 0.00 0.00 81 1016.5
20260906040535 74 88 2.0 6.0 0.00 0.00 0.00 81 1016.5
20260906040114 74 52 2.0 8.0 0.00 0.00 0.00 81 1016.5
20260906035534 74 61 1.0 8.0 0.00 0.00 0.00 81 1016.3
20260906035034 74 34 1.0 10.0 0.00 0.00 0.00 80 1016.3
20260906034601 74 52 1.0 10.0 0.00 0.00 0.00 81 1016.4
20260906034033 74 88 3.0 7.0 0.00 0.00 0.00 80 1016.3
20260906033534 73 98 2.0 5.0 0.00 0.00 0.00 81 1016.2
20260906033101 73 59 1.0 7.0 0.00 0.00 0.00 81 1016.2
20260906032539 73 29 3.0 8.0 0.00 0.00 0.00 81 1016.2
20260906032032 73 48 2.0 9.0 0.00 0.00 0.00 81 1016.2
20260906031606 73 97 2.0 9.0 0.00 0.00 0.00 81 1016.2
20260906031032 73 42 2.0 7.0 0.00 0.00 0.00 81 1016.3
20260906030533 73 324 2.0 6.0 0.00 0.00 0.00 81 1016.3
20260906030110 73 63 2.0 6.0 0.00 0.00 0.00 81 1016.3
20260906025533 73 355 3.0 10.0 0.00 0.00 0.00 81 1016.2
20260906025033 73 67 2.0 10.0 0.00 0.00 0.00 81 1016.2
20260906024602 73 88 1.0 9.0 0.00 0.00 0.00 81 1016.2
20260906024033 73 85 3.0 9.0 0.00 0.00 0.00 81 1016.2
20260906023533 73 57 3.0 10.0 0.00 0.00 0.00 81 1016.2
20260906023127 73 9 1.0 10.0 0.00 0.00 0.00 81 1016.3
20260906022532 73 55 2.0 10.0 0.00 0.00 0.00 81 1016.3
20260906022032 73 128 4.0 10.0 0.00 0.00 0.00 81 1016.2
20260906021556 73 16 2.0 12.0 0.00 0.00 0.00 81 1016.3
20260906021035 73 44 4.0 12.0 0.00 0.00 0.00 81 1016.4
20260906020533 73 70 3.0 14.0 0.00 0.00 0.00 81 1016.3
20260906020108 73 49 3.0 14.0 0.00 0.00 0.00 81 1016.2
20260906015532 73 73 4.0 13.0 0.00 0.00 0.00 81 1016.2
20260906015036 73 86 4.0 13.0 0.00 0.00 0.00 81 1016.2
20260906014626 73 10 1.0 8.0 0.00 0.00 0.00 81 1016.3
20260906014034 73 56 2.0 12.0 0.00 0.00 0.00 80 1016.3
20260906013534 73 49 2.0 12.0 0.00 0.00 0.00 80 1016.2
20260906013101 73 34 5.0 12.0 0.00 0.00 0.00 80 1016.2
20260906012535 73 74 3.0 9.0 0.00 0.00 0.00 80 1016.1
20260906012032 73 31 2.0 9.0 0.00 0.00 0.00 80 1016.2
20260906011559 73 42 1.0 7.0 0.00 0.00 0.00 80 1016.1
20260906011036 73 355 2.0 7.0 0.00 0.00 0.00 80 1016.2
20260906010535 73 72 0.0 10.0 0.00 0.00 0.00 80 1016.2
20260906010101 73 91 4.0 11.0 0.00 0.00 0.00 80 1016.2
20260906005532 74 15 2.0 11.0 0.00 0.00 0.00 80 1016.2
20260906005035 74 119 3.0 11.0 0.00 0.00 0.00 80 1016.2
20260906004608 74 59 2.0 9.0 0.00 0.00 0.00 80 1016.2
20260906004034 74 77 3.0 9.0 0.00 0.00 0.00 79 1016.1
20260906003534 75 53 2.0 12.0 0.00 0.00 0.00 79 1016.0
20260906003059 75 34 2.0 12.0 0.00 0.00 0.00 79 1015.9
20260906002533 75 95 3.0 10.0 0.00 0.00 0.00 79 1015.9
20260906002035 75 0 2.0 10.0 0.00 0.00 0.00 78 1015.7
20260906001601 76 321 2.0 9.0 0.00 0.00 0.00 78 1015.7
20260906001037 76 63 3.0 12.0 0.00 0.00 0.00 77 1015.5
20260906000533 77 84 2.0 12.0 0.00 0.00 0.00 76 1015.4
20260906000109 77 5 4.0 12.0 0.00 0.00 0.00 76 1015.4
20260905235535 77 30 3.0 13.0 0.00 0.00 0.00 76 1015.2
20260905235034 78 52 4.0 13.0 0.00 0.00 0.00 75 1015.2
20260905234557 78 57 5.0 12.0 0.00 0.00 0.00 75 1015.2
20260905234035 79 40 2.0 8.0 0.00 0.00 0.00 74 1015.2
20260905233534 79 32 2.0 10.0 0.00 0.00 0.00 74 1015.2
20260905233058 80 186 4.0 10.0 0.00 0.00 0.00 74 1015.1
20260905232534 80 0 2.0 9.0 0.00 0.00 0.00 74 1015.2
20260905232033 80 82 2.0 8.0 0.00 0.00 0.00 73 1015.3
20260905231602 80 134 2.0 11.0 0.00 0.00 0.00 73 1015.1
20260905231033 80 81 2.0 11.0 0.00 0.00 0.00 73 1015.0
20260905230532 80 89 2.0 9.0 0.00 0.00 0.00 72 1015.0
20260905230101 81 78 2.0 8.0 0.00 0.00 0.00 72 1014.9
20260905225535 81 69 2.0 8.0 0.00 0.00 0.00 71 1014.9
20260905225035 81 29 2.0 8.0 0.00 0.00 0.00 71 1014.7
20260905224602 82 333 3.0 8.0 0.00 0.00 0.00 70 1014.6
20260905224035 82 59 2.0 8.0 0.00 0.00 0.00 70 1014.6
20260905223534 82 110 3.0 8.0 0.00 0.00 0.00 71 1014.8
20260905223125 82 86 3.0 8.0 0.00 0.00 0.00 71 1014.6
20260905222535 82 62 2.0 5.0 0.00 0.00 0.00 71 1014.6
20260905222035 82 41 1.0 9.0 0.00 0.00 0.00 70 1014.5
20260905221606 82 50 2.0 9.0 0.00 0.00 0.00 71 1014.6
20260905221035 82 53 2.0 8.0 0.00 0.00 0.00 71 1014.5
20260905220535 82 264 2.0 8.0 0.00 0.00 0.00 71 1014.4
20260905220111 82 115 2.0 8.0 0.00 0.00 0.00 71 1014.5
20260905215535 82 88 2.0 8.0 0.00 0.00 0.00 71 1014.6
20260905215036 82 46 1.0 9.0 0.00 0.00 0.00 72 1014.6
20260905214606 83 13 2.0 11.0 0.00 0.00 0.00 72 1014.7
20260905214035 83 117 3.0 11.0 0.00 0.00 0.00 71 1014.6
20260905213536 83 78 2.0 9.0 0.00 0.00 0.00 71 1014.5
20260905213057 83 32 2.0 9.0 0.00 0.00 0.00 71 1014.5
20260905212536 83 130 3.0 9.0 0.00 0.00 0.00 70 1014.6
20260905212035 84 15 3.0 8.0 0.00 0.00 0.00 70 1014.6
20260905211558 84 360 2.0 9.0 0.00 0.00 0.00 70 1014.5
20260905211035 84 269 3.0 9.0 0.00 0.00 0.00 69 1014.6
20260905210534 84 40 2.0 9.0 0.00 0.00 0.00 70 1014.7
20260905205535 84 51 2.0 10.0 0.00 0.00 0.00 70 1014.7
20260905205036 85 40 2.0 9.0 0.00 0.00 0.00 69 1014.7
20260905204600 85 98 3.0 9.0 0.00 0.00 0.00 71 1014.7
20260905204036 86 298 3.0 9.0 0.00 0.00 0.00 68 1014.8
20260905203535 86 74 2.0 8.0 0.00 0.00 0.00 69 1014.8
20260905203103 85 46 1.0 8.0 0.00 0.00 0.00 71 1014.8
20260905202533 85 14 4.0 8.0 0.00 0.00 0.00 70 1014.8
20260905202035 85 9 3.0 8.0 0.00 0.00 0.00 71 1014.8
20260905201601 84 53 3.0 8.0 0.00 0.00 0.00 71 1014.7
20260905201035 85 34 2.0 8.0 0.00 0.00 0.00 71 1014.8
20260905200535 85 355 2.0 10.0 0.00 0.00 0.00 71 1014.7
20260905200100 85 53 3.0 11.0 0.00 0.00 0.00 69 1014.8
20260905195536 86 17 3.0 11.0 0.00 0.00 0.00 68 1014.7
20260905195035 86 51 2.0 10.0 0.00 0.00 0.00 68 1014.7
20260905194557 87 83 2.0 7.0 0.00 0.00 0.00 67 1014.7
20260905194035 87 360 2.0 8.0 0.00 0.00 0.00 68 1014.6
20260905193532 86 51 3.0 9.0 0.00 0.00 0.00 67 1014.7
20260905193059 87 18 3.0 9.0 0.00 0.00 0.00 67 1014.6
20260905192532 87 0 3.0 9.0 0.00 0.00 0.00 67 1014.7
20260905192036 87 338 4.0 8.0 0.00 0.00 0.00 66 1014.7
20260905191600 88 147 2.0 9.0 0.00 0.00 0.00 68 1014.8
20260905191035 87 352 2.0 9.0 0.00 0.00 0.00 68 1014.8
20260905190535 87 53 3.0 9.0 0.00 0.00 0.00 66 1014.8
20260905185536 89 321 2.0 9.0 0.00 0.00 0.00 66 1014.7
20260905185037 89 13 3.0 10.0 0.00 0.00 0.00 67 1014.8
20260905184608 89 30 2.0 10.0 0.00 0.00 0.00 66 1014.8
20260905184035 89 171 2.0 7.0 0.00 0.00 0.00 69 1014.8
20260905183535 88 0 1.0 10.0 0.00 0.00 0.00 68 1014.9
20260905183124 89 232 1.0 10.0 0.00 0.00 0.00 66 1014.8
20260905182535 90 20 1.0 8.0 0.00 0.00 0.00 65 1014.9
20260905182035 89 338 2.0 7.0 0.00 0.00 0.00 67 1014.8
20260905181604 89 263 1.0 8.0 0.00 0.00 0.00 68 1014.8
20260905181036 88 49 2.0 8.0 0.00 0.00 0.00 69 1014.7
20260905180536 87 59 2.0 8.0 0.00 0.00 0.00 71 1014.9
20260905180058 87 0 3.0 8.0 0.00 0.00 0.00 68 1014.7
20260905175536 88 54 3.0 8.0 0.00 0.00 0.00 68 1014.7
20260905175034 87 124 1.0 6.0 0.00 0.00 0.00 70 1014.7
20260905174605 87 0 1.0 6.0 0.00 0.00 0.00 68 1014.6
20260905174036 88 246 3.0 6.0 0.00 0.00 0.00 67 1014.6
20260905173536 88 309 1.0 5.0 0.00 0.00 0.00 67 1014.6
20260905173100 88 334 1.0 7.0 0.00 0.00 0.00 68 1014.7
20260905172535 89 209 1.0 7.0 0.00 0.00 0.00 69 1014.7
20260905172036 89 105 2.0 6.0 0.00 0.00 0.00 68 1014.7
20260905171604 88 67 2.0 10.0 0.00 0.00 0.00 68 1014.7
20260905171036 88 76 2.0 10.0 0.00 0.00 0.00 69 1014.8
20260905170535 88 67 3.0 8.0 0.00 0.00 0.00 68 1014.9
20260905170057 88 72 2.0 8.0 0.00 0.00 0.00 69 1014.9
20260905165535 88 89 2.0 9.0 0.00 0.00 0.00 69 1015.0
20260905165039 88 40 2.0 9.0 0.00 0.00 0.00 70 1015.0
20260905164606 88 49 2.0 7.0 0.00 0.00 0.00 69 1015.0
20260905164034 88 316 1.0 7.0 0.00 0.00 0.00 69 1015.1
20260905163535 88 278 2.0 7.0 0.00 0.00 0.00 68 1015.1
20260905163101 88 255 2.0 7.0 0.00 0.00 0.00 70 1015.1
20260905162536 87 78 1.0 8.0 0.00 0.00 0.00 71 1015.1
20260905162035 87 71 3.0 8.0 0.00 0.00 0.00 71 1015.1
20260905161559 87 276 2.0 10.0 0.00 0.00 0.00 71 1015.1
20260905161035 87 174 1.0 10.0 0.00 0.00 0.00 73 1015.2
20260905160537 86 35 2.0 10.0 0.00 0.00 0.00 72 1015.2
20260905160111 86 104 2.0 9.0 0.00 0.00 0.00 72 1015.1
20260905155535 85 69 3.0 9.0 0.00 0.00 0.00 72 1015.1
20260905155034 86 74 2.0 7.0 0.00 0.00 0.00 73 1015.1
20260905154603 85 78 3.0 7.0 0.00 0.00 0.00 73 1015.1
20260905154035 85 340 2.0 11.0 0.00 0.00 0.00 73 1015.0
20260905153534 84 119 2.0 11.0 0.00 0.00 0.00 74 1015.0
20260905153106 84 45 2.0 8.0 0.00 0.00 0.00 74 1015.0
20260905152535 84 48 2.0 7.0 0.00 0.00 0.00 76 1015.0
20260905152035 83 126 2.0 12.0 0.00 0.00 0.00 75 1014.8
20260905151553 83 55 3.0 12.0 0.00 0.00 0.00 76 1014.8
20260905151034 83 24 2.0 11.0 0.00 0.00 0.00 76 1014.8
20260905150535 82 123 3.0 11.0 0.00 0.00 0.00 77 1014.7
20260905150059 82 84 3.0 12.0 0.00 0.00 0.00 77 1014.7
20260905145535 81 332 4.0 12.0 0.00 0.00 0.00 77 1014.7
20260905145035 81 5 3.0 11.0 0.00 0.00 0.00 77 1014.7
20260905144557 81 143 3.0 10.0 0.00 0.00 0.00 77 1014.6
20260905144036 81 55 3.0 10.0 0.00 0.00 0.00 78 1014.7
20260905143535 82 24 4.0 10.0 0.00 0.00 0.00 77 1014.6
20260905143059 82 91 3.0 10.0 0.00 0.00 0.00 78 1014.7
20260905142535 82 29 2.0 10.0 0.00 0.00 0.00 77 1014.6
20260905142035 82 46 0.0 9.0 0.00 0.00 0.00 79 1014.6
20260905141600 82 28 3.0 9.0 0.00 0.00 0.00 78 1014.5
20260905141035 82 19 3.0 8.0 0.00 0.00 0.00 78 1014.3
20260905140536 82 36 0.0 8.0 0.00 0.00 0.00 79 1014.3
20260905140108 82 55 2.0 8.0 0.00 0.00 0.00 78 1014.2
20260905135534 82 80 2.0 7.0 0.00 0.00 0.00 79 1014.2
20260905135033 82 0 2.0 6.0 0.00 0.00 0.00 80 1014.2
20260905134556 81 71 1.0 5.0 0.00 0.00 0.00 80 1014.2
20260905134035 81 42 1.0 7.0 0.00 0.00 0.00 81 1014.2
20260905133536 81 53 1.0 7.0 0.00 0.00 0.00 82 1014.1
20260905133053 80 88 1.0 7.0 0.00 0.00 0.00 82 1014.2
20260905132535 80 0 2.0 6.0 0.00 0.00 0.00 84 1014.4
20260905132035 80 0 0.0 4.0 0.00 0.00 0.00 85 1014.5
20260905131609 79 314 0.0 5.0 0.00 0.00 0.00 86 1014.5
20260905131033 79 0 1.0 5.0 0.00 0.00 0.00 87 1014.2
20260905130532 78 92 2.0 6.0 0.00 0.00 0.00 88 1013.9
20260905130055 78 42 2.0 6.0 0.00 0.00 0.00 89 1014.0
20260905125531 78 34 0.0 3.0 0.00 0.00 0.00 90 1013.9
20260905125034 78 0 0.0 4.0 0.00 0.00 0.00 90 1013.8
20260905124558 77 55 0.0 4.0 0.00 0.00 0.00 90 1013.7
20260905124032 77 0 0.0 3.0 0.00 0.00 0.00 91 1013.7
20260905123532 77 0 0.0 2.0 0.00 0.00 0.00 91 1013.5
20260905123057 77 0 0.0 2.0 0.00 0.00 0.00 91 1013.5
20260905122531 76 0 0.0 1.0 0.00 0.00 0.00 91 1013.4
20260905122032 76 0 0.0 1.0 0.00 0.00 0.00 91 1013.3
20260905121601 76 0 0.0 1.0 0.00 0.00 0.00 90 1013.4
20260905121031 76 0 0.0 0.0 0.00 0.00 0.00 90 1013.4
20260905120533 76 0 0.0 0.0 0.00 0.00 0.00 90 1013.4
20260905120111 76 0 0.0 0.0 0.00 0.00 0.00 90 1013.3
20260905115534 76 0 0.0 0.0 0.00 0.00 0.00 90 1013.4